APRIZESAT 2 1 28366U 04025A 26129.45920292 .00000108 00000+0 46849-4 0 9992 2 28366 98.0986 297.6386 0105715 7.7241 352.5545 14.38022451146075 SAUDICOMSAT 1 1 28369U 04025D 26129.72410694 .00000247 00000+0 67658-4 0 9990 2 28369 98.5784 138.8172 0032979 139.7038 220.6611 14.55442718158533 SAUDICOMSAT 2 1 28370U 04025E 26129.75734696 .00000240 00000+0 73508-4 0 9990 2 28370 98.6656 140.9150 0055736 17.2064 343.1002 14.49956735154532 APRIZESAT 1 1 28372U 04025G 26129.76734852 .00000162 00000+0 52250-4 0 9991 2 28372 98.6318 139.4447 0043400 272.1588 87.4637 14.51757616156331 NANOSAT-1 1 28493U 04049B 26129.83821294 .00000756 00000+0 10708-3 0 9996 2 28493 98.2219 265.5757 0005114 65.6307 294.5437 14.80082447149774 SAUDICOMSAT 7 1 31119U 07012C 26129.82493262 .00000482 00000+0 95542-4 0 9993 2 31119 98.3758 103.1775 0054830 317.8023 41.8965 14.66069814 16819 SAUDICOMSAT 6 1 31121U 07012E 26129.84649215 .00000434 00000+0 92415-4 0 9992 2 31121 98.4074 96.6587 0073143 86.2356 274.7204 14.62507327 14582 SAUDICOMSAT 5 1 31124U 07012H 26129.85159012 .00000434 00000+0 83699-4 0 9991 2 31124 98.3470 103.9605 0046163 245.6308 114.0074 14.68112975 17971 SAUDICOMSAT 3 1 31125U 07012J 26129.74232806 .00000491 00000+0 88559-4 0 9996 2 31125 98.3124 104.4024 0039297 171.6041 188.5831 14.70645604 19175 SAUDICOMSAT 4 1 31127U 07012L 26129.82523014 .00000523 00000+0 10574-3 0 9998 2 31127 98.3962 101.6209 0063920 19.4340 340.9277 14.64465895 15676 APRIZESAT 4 1 35684U 09041D 26129.75284030 .00000543 00000+0 71328-4 0 9995 2 35684 98.1416 204.3079 0044699 86.5549 274.0775 14.83823195905663 APRIZESAT 3 1 35686U 09041F 26129.37636120 .00001964 00000+0 17399-3 0 9991 2 35686 98.2021 280.7561 0061433 193.8983 166.0548 14.96113826910572 S-NET D 1 43186U 18014G 26129.72915557 .00003524 00000+0 18522-3 0 9991 2 43186 97.5387 34.7654 0009335 141.9509 218.2385 15.16310832452933 S-NET B 1 43187U 18014H 26129.73985920 .00003835 00000+0 20137-3 0 9994 2 43187 97.5392 34.7614 0010066 138.6995 221.5001 15.16280988452931 S-NET A 1 43188U 18014J 26129.72822404 .00003466 00000+0 18215-3 0 9995 2 43188 97.5402 34.9515 0009934 138.9928 221.2053 15.16317620452935 S-NET C 1 43189U 18014K 26129.67753353 .00003919 00000+0 20567-3 0 9992 2 43189 97.5420 34.9699 0011423 133.7911 226.4268 15.16271395451471 SALSAT 1 46495U 20068K 26129.74245139 .00006126 00000+0 21853-3 0 9995 2 46495 97.8864 130.4857 0011631 80.5049 279.7504 15.29233018309480 OOV-CUBE (TUBSAT-30) 1 60240U 24128F 26129.79293128 .00001624 00000+0 13427-3 0 9992 2 60240 61.9964 359.4324 0049197 125.3471 235.2233 15.02578804100340 LPNTSAT-001 (IOD-1) 1 68408U 26065A 26129.65753083 .00001851 00000+0 92810-4 0 9990 2 68408 97.4065 10.9775 0018267 134.4323 225.8410 15.18448234 6415